Temperature
17 18 18 17 17 17 16 16 15 15 14 13 12 12 12 13 13 12 12 11 11 10 10 9 9 9 8 8 8 8 8 8 8 9 9 9 9 9 9 9 9 9 9 9
18 18 17 17 17 17 16 16 15 14 13 12 13 12 12 12 12 11 11 10 10 9 9 8 8 7 7 7 7 7 7 7 7 7 7 8 8 8 8 9 9 9 9 9
16 17 17 16 16 16 16 15 14 13 12 12 10 10 11 12 11 11 10 9 9 8 8 7 7 6 6 6 5 5 5 6 6 6 6 6 7 7 7 8 8 8 8 8
15 17 18 16 16 16 15 14 13 12 12 11 11 12 12 12 11 10 9 8 8 7 7 6 6 5 5 5 5 5 5 5 5 5 5 5 5 6 6 7 7 7 7 8
14 16 16 16 16 16 14 13 12 12 11 11 12 10 10 11 10 9 8 8 7 7 6 6 5 5 5 5 5 4 4 4 4 4 4 4 4 5 5 5 6 6 6 7
14 17 16 16 16 16 15 13 13 12 11 11 9 7 8 10 9 8 8 7 7 6 6 6 5 5 5 4 4 4 4 4 4 4 4 4 4 4 5 5 5 5 6 6
14 15 15 15 16 15 14 14 13 13 12 11 9 9 10 9 8 8 7 7 6 6 6 6 5 5 5 5 5 4 4 4 4 4 4 4 4 4 4 4 5 5 5 6
12 15 15 15 14 14 14 14 14 13 12 11 11 10 9 8 8 7 7 6 6 6 6 6 5 5 5 5 5 5 4 4 4 4 4 4 4 4 4 4 4 5 5 5
13 14 15 15 15 16 15 14 13 12 12 11 10 9 8 8 7 7 6 6 6 6 6 6 6 5 5 5 5 5 5 4 4 4 4 4 4 4 4 4 4 4 5 5
12 13 14 15 15 15 14 14 13 12 11 10 9 9 8 7 7 7 6 6 6 6 6 6 6 6 6 6 6 5 5 5 5 4 4 4 4 4 4 4 4 4 4 5
13 13 14 14 15 15 14 13 12 12 11 10 9 8 7 7 7 6 6 6 6 6 6 6 6 6 6 6 6 6 5 5 5 5 4 4 4 4 4 4 4 4 5 5
14 15 13 16 17 15 13 13 12 11 10 9 8 8 7 7 7 6 6 6 6 6 6 6 6 6 6 6 6 6 6 6 5 5 5 5 5 4 5 5 5 5 5 5
18 18 18 16 15 14 13 12 12 11 10 9 8 8 7 7 6 6 6 6 6 6 6 6 6 6 6 6 6 6 6 6 6 6 5 5 5 5 5 5 5 5 5 6
18 17 16 15 15 14 13 12 11 10 9 9 8 8 7 7 7 6 6 6 6 6 6 6 6 7 6 7 7 7 6 6 6 6 6 6 6 6 5 5 5 5 6 6
18 17 17 16 15 13 13 12 11 10 9 9 8 8 7 7 6 6 6 6 7 7 7 6 7 7 7 7 7 7 7 7 6 6 6 6 6 6 6 6 6 6 6 6
18 16 16 15 14 13 12 12 11 10 9 9 8 8 7 7 7 7 7 6 6 7 6 6 7 7 7 7 7 7 7 7 7 7 7 6 6 6 6 6 6 6 6 6
17 16 16 15 14 13 13 12 11 10 9 9 8 8 7 7 7 7 7 7 7 7 6 6 7 7 7 7 7 7 8 7 7 7 7 7 7 6 6 6 6 6 6 6
19 18 17 16 15 14 13 12 11 10 9 9 8 8 7 7 7 7 7 7 7 8 8 7 7 7 7 7 7 7 7 8 7 7 7 7 7 7 6 6 6 6 6 5
18 17 16 15 14 13 12 12 11 10 9 9 8 8 7 7 7 7 6 7 7 7 8 8 8 8 8 8 8 7 7 7 7 7 7 7 7 7 7 6 6 6 6 6
18 17 16 15 14 13 12 11 11 10 9 9 8 8 7 7 7 7 7 7 6 6 7 7 7 8 8 8 8 8 7 7 7 7 7 7 7 7 7 7 6 6 6 6
17 17 16 15 14 13 12 11 11 10 9 9 8 8 7 7 7 7 7 7 7 7 7 7 8 8 8 8 8 8 7 7 7 7 7 7 7 7 7 7 7 7 7 7
17 17 16 15 14 13 12 11 11 10 9 9 8 8 7 7 7 7 7 6 7 7 7 8 8 8 8 8 8 8 8 7 7 7 7 7 7 7 7 7 7 7 7 7
17 17 16 15 14 13 12 11 11 10 9 9 8 8 7 7 7 7 7 6 6 7 7 7 7 8 8 8 8 8 8 8 7 7 7 7 7 7 7 7 7 8 8 8
17 16 15 14 14 13 12 12 11 10 10 9 8 8 7 7 7 6 6 6 6 6 7 7 8 8 8 8 8 8 8 8 8 8 8 7 7 7 7 8 8 8 8 8
17 16 15 14 14 14 13 12 11 10 10 9 8 7 7 7 7 6 6 6 6 6 7 7 8 8 8 8 8 8 8 8 8 8 8 8 8 8 8 8 8 9 9 9
16 16 15 15 15 14 13 12 11 11 10 9 8 8 7 7 6 6 6 6 5 5 6 7 7 8 8 8 8 8 8 9 9 9 9 9 8 8 9 9 9 9 9 9
15 15 15 15 14 14 13 12 12 11 10 9 8 8 7 7 6 6 6 5 5 5 5 6 7 7 8 8 8 8 8 9 9 9 9 9 9 9 9 9 9 10 10 10
Wind_Speed
0 1 4 4 4 5 4 3 4 7 7 6 5 7 9 9 10 11 12 12 12 12 12 12 12 12 12 13 14 14 15 15 16 16 15 15 14 13 13 12 13 12 12 11
2 3 5 4 3 2 1 2 4 6 7 6 6 6 8 11 11 11 12 12 13 13 13 13 13 13 13 13 13 13 14 16 16 16 16 16 15 14 13 13 12 11 12 12
2 3 0 2 3 3 4 5 6 7 7 7 8 9 9 10 11 11 13 13 13 13 13 13 13 13 13 14 14 14 15 16 16 16 16 16 17 15 13 12 11 11 11 11
1 3 3 6 3 4 5 6 7 7 8 9 11 9 10 10 9 11 12 11 12 12 12 13 13 14 14 15 15 15 16 16 16 16 17 16 15 15 14 11 10 10 10 11
3 1 6 3 4 4 4 7 7 7 9 8 8 8 7 7 6 9 10 12 13 14 15 13 14 14 15 16 16 16 17 17 17 17 17 16 16 14 12 10 10 9 7 9
4 2 5 7 3 1 2 6 6 6 8 8 7 7 7 7 9 10 11 12 13 13 14 14 14 14 15 17 17 17 18 18 17 16 16 16 15 13 11 10 10 10 9 9
3 4 7 6 2 3 1 6 4 5 7 7 5 7 9 11 10 10 12 14 14 14 14 14 14 14 16 17 17 18 18 17 17 15 14 13 12 11 9 8 8 9 9 8
4 3 7 5 6 6 8 3 3 5 6 7 8 9 9 9 10 12 13 13 12 13 15 14 13 14 16 17 17 17 17 17 16 14 12 11 9 8 7 7 7 7 7 7
8 7 5 5 8 6 6 5 5 5 7 6 7 8 8 8 10 12 13 12 13 14 15 15 13 13 16 17 17 17 16 16 14 13 10 9 8 7 6 5 5 5 5 6
4 7 6 6 5 4 6 6 5 6 6 5 7 8 10 10 10 12 11 13 12 14 16 16 15 15 15 16 16 16 16 14 13 11 10 9 7 5 5 4 4 5 5 6
5 6 4 7 8 7 5 5 5 5 4 5 7 8 8 9 11 11 12 11 12 14 15 16 16 16 16 15 15 15 15 13 12 10 9 8 7 5 4 4 5 5 5 5
8 8 8 8 7 8 7 7 7 5 5 5 5 8 8 9 9 10 13 13 13 14 15 16 16 16 15 14 15 14 13 12 10 9 8 7 6 5 4 3 4 7 7 6
6 5 7 4 5 7 7 7 5 5 6 6 6 6 7 7 8 10 12 13 14 15 16 16 16 16 15 15 15 14 12 11 9 8 7 7 6 5 4 3 4 4 1 4
5 7 4 5 6 8 6 4 2 3 5 6 6 7 8 7 9 12 13 13 14 15 15 15 16 16 16 16 15 14 12 11 9 7 6 6 5 4 3 2 1 2 3 3
9 8 7 6 6 6 5 3 3 4 6 6 6 7 8 9 11 12 13 13 13 14 14 15 16 17 17 16 15 14 11 9 8 7 6 5 4 3 2 1 1 0 1 2
9 6 5 6 8 7 5 5 5 6 6 6 7 8 8 9 10 11 11 11 13 15 15 15 16 17 17 15 15 12 10 13 10 6 5 5 4 3 2 1 1 0 0 0
10 9 8 8 9 8 7 7 7 7 6 7 7 8 8 9 10 11 12 12 12 12 12 13 16 17 16 14 13 10 9 10 11 7 5 4 3 3 2 1 1 0 0 1
12 12 10 9 8 9 8 7 7 7 6 6 7 7 8 9 11 12 14 14 13 12 11 14 17 18 16 14 12 9 8 7 6 5 5 4 4 3 2 1 1 1 0 0
9 10 10 10 9 9 8 7 7 6 6 5 5 6 7 8 9 10 11 12 12 15 17 18 22 17 16 16 16 8 8 7 6 5 4 4 4 3 2 2 2 2 1 0
9 9 10 9 8 7 7 7 6 6 5 4 4 6 7 8 9 10 10 8 7 9 14 17 16 15 16 16 17 9 8 7 6 6 5 4 3 3 2 2 2 2 2 2
11 10 10 9 9 8 8 7 6 6 5 3 4 5 7 8 8 8 9 9 9 12 15 15 13 14 14 15 14 9 9 8 6 5 5 4 4 3 3 2 2 2 2 2
10 11 11 10 9 7 6 6 5 5 4 4 4 5 6 7 8 8 7 6 10 14 13 11 11 16 19 15 10 10 9 9 7 6 5 5 4 4 3 3 2 2 2 2
10 10 10 10 9 7 5 5 6 5 5 4 4 4 4 5 5 6 8 8 10 14 11 10 16 21 20 11 10 10 10 10 9 8 7 5 4 3 3 3 3 3 3 2
10 10 10 9 7 6 7 7 6 4 4 3 3 3 3 4 4 3 6 10 12 13 10 11 16 19 15 10 10 10 10 10 9 8 7 6 5 3 3 3 3 3 3 3
11 11 10 10 10 9 9 7 5 4 4 3 2 2 2 2 3 5 7 9 11 12 10 11 14 15 12 10 10 10 9 9 9 8 8 7 6 4 3 3 2 3 3 3
11 11 11 12 11 9 8 7 6 5 5 4 3 2 2 2 4 5 6 8 10 11 9 9 11 11 10 10 10 10 10 10 10 9 9 8 7 6 5 4 3 3 2 2
9 8 7 7 7 7 8 8 8 7 7 5 4 2 1 2 3 5 6 6 7 8 8 8 9 9 10 10 10 10 9 9 9 9 9 8 7 6 6 5 4 3 3 3
Wind_Direction
25 2 100 83 61 61 91 163 211 260 262 254 257 279 282 286 293 299 299 299 298 298 297 297 298 298 297 295 294 294 293 290 286 283 280 277 270 261 253 242 237 233 231 231
50 62 90 81 46 74 118 240 250 270 272 245 272 286 284 286 290 294 296 300 302 303 303 303 303 302 301 299 297 296 294 292 290 288 286 282 276 268 258 248 239 229 227 227
219 259 267 262 222 215 232 230 223 243 256 287 294 288 282 286 294 297 301 304 304 304 301 301 302 303 302 299 299 297 294 293 292 289 287 285 282 275 264 254 242 231 226 222
118 45 264 251 228 209 228 240 215 230 258 276 271 277 277 278 283 291 297 299 302 302 302 301 301 302 302 303 302 300 297 295 293 290 288 285 281 273 266 258 248 238 231 223
109 265 287 270 219 193 230 269 213 232 263 277 294 317 293 275 281 288 295 299 302 303 304 304 305 306 307 307 305 303 301 297 295 291 288 286 282 273 266 257 248 238 228 223
125 193 253 247 208 168 153 287 222 228 268 286 321 325 290 293 311 306 305 304 304 304 305 307 308 311 312 313 312 309 307 303 299 294 289 285 282 276 267 255 246 239 234 226
163 225 262 239 178 99 204 269 220 232 263 277 258 245 274 302 304 298 299 303 305 308 312 312 313 316 316 315 315 313 310 308 305 301 295 290 286 279 271 260 247 235 234 231
159 213 266 200 145 185 222 237 241 256 265 267 266 275 289 297 299 304 307 308 311 314 317 316 317 319 319 318 317 317 315 314 313 309 304 302 295 287 278 262 246 235 231 235
190 214 244 206 203 211 182 211 245 252 267 277 283 288 294 293 297 303 306 310 314 316 319 320 321 321 320 319 321 321 320 319 318 316 312 305 297 290 281 260 242 229 223 229
238 259 238 231 229 217 196 215 244 260 277 281 281 285 291 293 299 307 309 315 317 320 322 323 323 323 320 320 323 323 323 323 323 322 319 315 306 292 274 254 235 225 223 227
245 267 253 253 234 223 219 233 264 280 275 273 276 283 285 294 303 310 315 316 317 321 322 322 323 323 323 324 326 327 326 326 327 327 325 323 319 308 286 257 236 222 224 219
221 215 193 232 225 200 206 232 249 260 273 276 271 277 288 298 302 309 315 317 320 322 324 324 324 323 324 328 329 328 327 328 327 327 327 326 326 329 329 311 263 240 239 234
209 186 183 218 188 183 198 224 237 246 259 277 285 283 292 297 300 309 315 320 323 324 323 323 324 324 327 330 331 329 325 322 322 325 326 327 328 331 333 359 41 40 332 236
178 137 162 196 195 195 197 209 229 270 279 278 278 290 298 297 305 316 321 322 321 322 323 325 327 329 330 330 330 328 324 321 324 319 321 321 323 323 321 327 350 26 35 42
190 183 191 193 180 179 186 200 238 279 286 290 284 293 302 309 314 317 318 320 323 326 328 331 332 331 330 330 329 327 325 322 320 320 322 323 325 331 335 334 353 40 53 46
184 185 176 171 187 198 202 219 239 263 274 278 286 296 303 306 308 311 315 323 329 329 328 329 330 329 328 329 330 328 325 326 332 326 328 335 340 343 345 351 2 14 80 127
156 185 194 202 208 209 213 220 227 246 263 274 283 297 310 317 321 325 328 330 325 320 321 329 330 330 330 330 330 327 324 325 333 335 336 336 337 343 347 358 358 338 300 226
184 184 179 184 191 204 217 226 234 245 254 265 289 307 315 321 322 324 326 328 329 330 336 339 335 332 331 332 331 326 325 323 326 330 333 341 345 357 6 12 23 39 354 238
180 176 180 184 182 185 201 218 231 241 257 270 290 301 304 307 310 315 322 327 335 340 340 337 332 333 333 333 334 326 328 330 336 337 341 349 5 20 22 24 26 22 21 37
177 173 174 179 181 185 201 216 226 242 255 260 283 300 310 314 318 322 325 320 323 330 328 328 331 336 336 334 335 331 332 334 338 342 350 359 4 7 12 26 35 33 32 28
179 173 174 182 192 202 208 211 214 236 253 257 271 289 300 308 318 325 328 329 332 336 335 330 338 341 338 335 333 340 343 345 348 350 353 358 5 12 21 38 49 47 37 29
179 176 182 186 193 208 217 215 217 230 244 259 275 292 306 314 321 322 311 310 324 332 337 337 342 341 341 339 348 351 353 355 355 356 359 5 14 21 29 39 47 47 54 47
179 179 183 190 196 203 212 218 220 220 227 244 265 287 297 303 310 322 329 326 330 333 336 338 339 341 345 351 356 357 359 -0 359 358 0 4 12 24 31 38 47 51 56 63
180 182 187 187 175 183 211 223 216 211 213 224 246 274 294 309 312 297 305 316 327 331 336 335 338 345 350 357 360 1 1 1 357 354 357 4 10 17 31 44 49 50 52 53
186 184 183 183 189 204 211 205 193 195 197 217 249 289 307 294 296 313 322 329 334 338 342 342 344 349 358 359 2 3 1 1 357 355 359 3 8 14 24 38 52 59 58 53
190 194 199 204 204 199 186 178 185 191 189 207 233 264 310 321 321 325 332 339 343 343 348 351 353 356 2 1 3 4 3 360 360 2 2 3 6 14 18 26 43 55 63 58
205 202 204 212 209 192 181 180 184 188 187 190 203 218 288 324 335 343 346 350 352 351 352 355 357 360 2 4 4 6 7 5 3 1 0 2 4 6 9 16 24 32 42 55
Height
1517 1514 1513 1516 1518 1518 1520 1522 1528 1524 1521 1517 1516 1514 1511 1507 1504 1500 1497 1493 1489 1484 1478 1473 1467 1462 1456 1451 1446 1440 1435 1429 1424 1421 1417 1414 1412 1411 1410 1411 1411 1412 1414 1415
1519 1516 1516 1520 1519 1518 1519 1519 1520 1520 1519 1513 1512 1511 1508 1504 1500 1496 1492 1488 1484 1478 1472 1467 1461 1455 1449 1443 1437 1432 1426 1420 1415 1410 1406 1402 1400 1399 1398 1398 1400 1402 1403 1405
1526 1520 1521 1525 1520 1518 1519 1518 1519 1521 1517 1511 1510 1507 1504 1499 1496 1493 1489 1484 1478 1473 1466 1460 1454 1448 1441 1435 1429 1423 1417 1411 1406 1401 1396 1392 1389 1387 1386 1387 1389 1391 1393 1395
1528 1524 1527 1523 1513 1513 1515 1514 1514 1513 1512 1509 1506 1503 1500 1496 1494 1489 1484 1479 1473 1466 1460 1454 1447 1441 1434 1428 1421 1415 1409 1402 1397 1391 1386 1382 1378 1376 1375 1376 1377 1380 1383 1386
1532 1528 1525 1518 1512 1512 1515 1515 1510 1511 1509 1506 1502 1499 1495 1493 1490 1485 1480 1474 1468 1461 1454 1447 1441 1434 1427 1420 1414 1407 1401 1394 1388 1382 1376 1372 1368 1366 1365 1365 1367 1369 1373 1377
1530 1527 1529 1517 1508 1508 1513 1514 1508 1507 1505 1503 1501 1501 1493 1489 1485 1480 1475 1469 1462 1455 1448 1441 1435 1428 1421 1414 1407 1400 1393 1386 1380 1374 1368 1362 1359 1357 1356 1356 1357 1360 1364 1368
1527 1528 1521 1508 1506 1509 1518 1513 1505 1504 1502 1500 1499 1497 1490 1486 1481 1476 1470 1464 1457 1450 1442 1436 1429 1423 1416 1409 1402 1395 1387 1380 1373 1366 1361 1355 1352 1350 1349 1349 1350 1352 1356 1360
1529 1527 1521 1503 1505 1508 1507 1501 1501 1500 1499 1497 1494 1490 1487 1482 1477 1471 1465 1458 1451 1444 1438 1431 1425 1419 1412 1405 1398 1390 1382 1375 1367 1361 1355 1351 1347 1345 1344 1344 1345 1347 1350 1354
1514 1513 1502 1499 1499 1499 1499 1499 1498 1497 1495 1493 1490 1487 1483 1478 1473 1467 1460 1454 1447 1441 1433 1427 1422 1415 1408 1401 1394 1386 1379 1371 1364 1358 1353 1348 1345 1342 1341 1341 1342 1343 1346 1349
1506 1501 1498 1497 1497 1497 1497 1496 1496 1494 1492 1490 1487 1484 1479 1475 1469 1462 1456 1450 1443 1437 1430 1424 1418 1412 1406 1399 1391 1384 1376 1369 1362 1356 1351 1347 1343 1341 1339 1339 1340 1341 1343 1345
1502 1497 1496 1494 1494 1494 1494 1494 1493 1492 1490 1487 1484 1480 1476 1470 1465 1459 1452 1446 1440 1434 1427 1421 1415 1409 1403 1396 1389 1382 1375 1369 1362 1356 1351 1347 1343 1341 1339 1338 1338 1340 1341 1343
1497 1490 1491 1490 1489 1491 1491 1491 1490 1489 1486 1484 1481 1477 1472 1467 1461 1456 1449 1443 1437 1431 1425 1418 1412 1406 1400 1394 1388 1381 1374 1368 1362 1357 1352 1348 1345 1342 1340 1338 1338 1339 1341 1342
1485 1486 1487 1487 1487 1488 1488 1488 1487 1485 1483 1481 1477 1474 1469 1464 1458 1453 1446 1440 1434 1428 1422 1416 1410 1404 1398 1392 1386 1380 1374 1368 1363 1358 1354 1350 1346 1344 1341 1340 1340 1340 1341 1342
1483 1484 1484 1484 1485 1485 1486 1485 1484 1483 1480 1478 1474 1471 1466 1461 1455 1450 1444 1438 1432 1426 1421 1414 1408 1403 1397 1391 1385 1380 1374 1369 1364 1359 1355 1352 1348 1346 1344 1342 1341 1341 1341 1342
1479 1481 1482 1482 1483 1483 1483 1483 1481 1480 1477 1475 1472 1468 1463 1458 1452 1447 1441 1436 1430 1425 1419 1413 1407 1401 1395 1390 1384 1379 1373 1368 1364 1360 1356 1353 1350 1347 1345 1344 1343 1342 1342 1342
1475 1478 1478 1479 1480 1480 1480 1480 1478 1476 1474 1472 1468 1465 1460 1455 1450 1445 1439 1433 1428 1422 1417 1411 1405 1400 1394 1389 1384 1379 1374 1369 1365 1361 1357 1354 1351 1349 1347 1345 1344 1343 1342 1342
1471 1473 1474 1475 1476 1477 1477 1476 1475 1473 1471 1469 1466 1462 1458 1453 1447 1442 1436 1431 1426 1421 1416 1410 1404 1398 1393 1388 1383 1378 1374 1370 1365 1362 1358 1355 1353 1350 1348 1346 1345 1343 1342 1342
1467 1469 1471 1472 1473 1473 1473 1473 1471 1470 1468 1466 1463 1459 1455 1450 1445 1439 1434 1429 1424 1420 1415 1409 1404 1398 1392 1387 1382 1378 1374 1370 1367 1363 1359 1356 1354 1352 1350 1348 1346 1345 1343 1342
1464 1466 1468 1469 1470 1470 1470 1469 1468 1467 1465 1463 1460 1457 1453 1449 1444 1438 1433 1428 1423 1417 1412 1408 1403 1397 1392 1387 1382 1378 1374 1370 1367 1364 1361 1358 1355 1353 1351 1349 1348 1346 1344 1343
1461 1463 1464 1465 1466 1466 1466 1466 1465 1464 1462 1460 1457 1454 1451 1446 1442 1436 1431 1427 1422 1418 1412 1408 1402 1397 1392 1387 1382 1378 1374 1371 1367 1365 1362 1359 1357 1355 1353 1352 1350 1349 1348 1347
1457 1459 1461 1462 1463 1463 1463 1463 1462 1461 1460 1458 1455 1452 1448 1444 1440 1435 1429 1425 1421 1416 1412 1407 1402 1397 1392 1387 1383 1379 1375 1371 1368 1366 1364 1361 1359 1357 1356 1355 1354 1353 1352 1351
1453 1455 1457 1459 1460 1460 1461 1460 1460 1459 1458 1456 1453 1450 1446 1442 1437 1433 1429 1424 1419 1415 1411 1407 1402 1398 1393 1389 1384 1380 1376 1373 1370 1368 1366 1364 1362 1360 1359 1358 1357 1356 1356 1356
1449 1451 1454 1456 1456 1457 1458 1458 1457 1457 1455 1453 1451 1448 1444 1440 1436 1431 1427 1423 1418 1414 1411 1407 1403 1399 1395 1390 1386 1382 1378 1375 1372 1370 1368 1366 1365 1364 1363 1362 1361 1361 1361 1361
1445 1447 1449 1451 1452 1452 1453 1454 1454 1453 1453 1451 1449 1446 1442 1438 1434 1430 1426 1422 1418 1414 1410 1407 1403 1400 1396 1392 1388 1384 1380 1378 1375 1373 1371 1370 1368 1367 1367 1366 1366 1366 1367 1367
1440 1442 1444 1445 1445 1445 1447 1449 1449 1450 1449 1448 1446 1444 1440 1436 1433 1428 1425 1421 1417 1413 1409 1406 1403 1400 1396 1393 1389 1386 1383 1380 1378 1376 1374 1373 1372 1371 1371 1371 1371 1372 1372 1373
1434 1435 1437 1438 1438 1439 1440 1442 1443 1444 1445 1444 1443 1441 1438 1435 1431 1427 1424 1420 1416 1412 1409 1405 1403 1400 1397 1394 1391 1388 1386 1383 1381 1379 1378 1376 1376 1375 1375 1375 1376 1377 1378 1379
1428 1429 1431 1432 1432 1432 1434 1435 1437 1439 1440 1440 1440 1438 1436 1433 1430 1426 1423 1419 1416 1412 1409 1405 1402 1400 1398 1395 1393 1390 1388 1386 1384 1382 1381 1380 1379 1379 1379 1379 1380 1381 1382 1383